Regional Weather Roundup
Issued by NWS

Home | Current Version | Previous Version | Text Only | Print | Product List | Glossary On
Versions: 1 2 3 4 5 6 7 8 9 10 11 12 13 14 15 16 17 18 19 20 21 22 23 24 25 26 27 28 29 30 31 32 33 34 35 36 37 38 39 40 41 42 43 44 45 46 47 48 49 50
000
ASUS43 KDTX 251401
RWRMI
MICHIGAN HOURLY REGIONAL WEATHER ROUNDUP
NATIONAL WEATHER SERVICE DETROIT/PONTIAC MI
1000 AM EDT MON JUL 25 2016

NOTE: "FAIR" INDICATES FEW OR NO CLOUDS BELOW 12,000 FEET WITH NO
SIGNIFICANT WEATHER AND/OR OBSTRUCTION TO VISIBILITY.

MIZ047>049-052>055-059>063-066>070-074>076-081>083-251500-
SOUTHEAST LOWER MICHIGAN

CITY           SKY/WX    TMP DP  RH WIND       PRES   REMARKS
ADRIAN         MOSUNNY   78  70  76 NW6       29.95F
ALMA           MOSUNNY   78  72  80 NW3G17    29.94S
ANN ARBOR      CLOUDY    77  71  82 SW8       29.94R
BAD AXE        CLOUDY    78  70  75 NW7       29.91R
CARO           CLOUDY    80  72  75 W8        29.91S
DETROIT CITY   CLOUDY    77  71  82 W7        29.91F
DETROIT        CLOUDY    78  70  76 SW7       29.93R
FLINT          CLOUDY    81  69  67 W13       29.92S
GROSSE ILE     PTSUNNY   75  71  86 W6        29.92S
HOWELL         CLOUDY    77  70  77 W9        29.94S

CITY           SKY/WX    TMP DP  RH WIND       PRES   REMARKS
JACKSON        CLOUDY    78  71  79 W9        29.95S
LAMBERTVILLE   CLOUDY    77  70  79 W5        29.95S
LANSING        MOSUNNY   79  68  69 W9        29.94S
LAPEER         FAIR      77  70  78 W6        29.92R
MASON          PTSUNNY   78  69  73 W6        29.95S
MONROE         CLOUDY    76  72  86 W7        29.93S
PONTIAC        CLOUDY    76  69  79 W14       29.92R
PORT HURON     CLOUDY    77  72  83 W5        29.91R
TRI CITIES     SUNNY     79  69  71 NW8       29.92S
MIDLAND        NOT AVBL
TROY           CLOUDY    79  69  70 NW8       29.93S
SAGINAW HB     MOSUNNY   81  68  65 W10       29.91S
$$
MIZ043>046-050>051-056>058-064>065-071>073-077>080-251500-
SOUTHWEST LOWER MICHIGAN

CITY           SKY/WX    TMP DP  RH WIND       PRES   REMARKS
BATTLE CREEK   PTSUNNY   75  69  81 W8        29.97S
BENTON HARBOR  SUNNY     77  67  71 NW9       29.98R
BIG RAPIDS     SUNNY     75  71  85 W7        29.94S
COLDWATER      CLOUDY    77  70  78 W6        29.97R
FREMONT        FAIR      77  70  77 NW7       29.95S
HOLLAND        SUNNY     77  68  73 NW7       29.96F
GRAND RAPIDS   MOSUNNY   79  68  69 W9        29.95S
IONIA          FAIR      79  67  66 W7        29.94S
KALAMAZOO      SUNNY     79  67  66 NW8       29.97R
LUDINGTON      SUNNY     75  67  76 NW8       29.94S
MARSHALL       CLOUDY    78  71  78 W7        29.95F
MOUNT PLEASANT MOSUNNY   79  68  68 CALM      29.93S
MUSKEGON       MOSUNNY   80  68  66 NW9       29.95S
SOUTH HAVEN    SUNNY     77  66  69 NW13G20   29.97R
$$
MIZ016>042-251500-
NORTHERN LOWER MICHIGAN

CITY           SKY/WX    TMP DP  RH WIND       PRES   REMARKS
ALPENA         SUNNY     79  61  53 W8        29.86F
BEAVER ISLAND  SUNNY     73  63  71 W10       29.90R
BELLAIRE       SUNNY     76  64  65 W8        29.91R
CADILLAC       SUNNY     76  65  67 W10       29.94S
CHARLEVOIX     MOSUNNY   74  65  74 W13       29.93R
FRANKFORT      SUNNY     75  65  69 NW12      29.93S
GAYLORD        SUNNY     75  62  64 W9G17     29.91S
GRAYLING       SUNNY     78  65  63 W9G17     29.92F
HARBOR SPRINGS SUNNY     73  67  80 SW9       29.88S
HOUGHTON LAKE  SUNNY     77  65  66 W10       29.93F
MANISTEE       SUNNY     76  66  71 NW12G18   29.94R
OSCODA         PTSUNNY   77  67  71 W10G16    29.88R
PELLSTON       SUNNY     75  62  64 NW13      29.88R
ROGERS CITY    SUNNY     78  64  63 W10       29.87R
TRAVERSE CITY  SUNNY     79  63  57 NW9       29.90S
$$
MIZ007>008-015-251500-
EASTERN UPPER MICHIGAN

CITY           SKY/WX    TMP DP  RH WIND       PRES   REMARKS
KINROSS        SUNNY     73  64  73 NW9       29.85R
MACKINAC ISLAN SUNNY     71  68  92 W8        29.86S
S. S. MARIE    MOSUNNY   73  63  70 W10       29.83S
$$
MIZ004>006-011>014-085-251500-
CENTRAL UPPER MICHIGAN

CITY           SKY/WX    TMP DP  RH WIND       PRES   REMARKS
MANISTIQUE     SUNNY     74  63  69 NW12      29.87R
ESCANABA       SUNNY     73  61  64 NW15      29.89R
MENOMINEE        N/A    N/A N/A N/A VRB6        N/A
SAWYER-GWINN   MOSUNNY   70  59  68 NW13G22   29.91
$$
MIZ001>003-009>011-084-251500-
WESTERN UPPER MICHIGAN

CITY           SKY/WX    TMP DP  RH WIND       PRES   REMARKS
IRON MOUNTAIN  SUNNY     73  58  59 NW18G25   29.93S
HOUGHTON       SUNNY     70  58  65 W18G25    29.92R
COPPER HARBOR    N/A     68  58  70 NW15G26   29.87R
IRONWOOD       SUNNY     70  63  78 NW8       29.98S
$$

ABBREVIATIONS USED IN REMARKS
   TC - TEMPERATURE IN CELSIUS
  WCI - WIND CHILL INDEX
   HX - HEAT INDEX
  VSB - VISIBILITY




USA.gov is the U.S. government's official web portal to all federal, state and local government web resources and services.